San Jose, Costa Rica

3:43 AM CST on August 24, 2016 (GMT -0600)
Juan Santamaria International

Weather History for MROC - October, 2011

Change the Weather History Date:

Thursday, October 20, 2011

  Actual Average Record
Temperature  
Mean Temperature 70 °F -  
Max Temperature 76 °F 78 °F 86 °F (1997)
Min Temperature 64 °F 64 °F 60 °F (1996)
Cooling Degree Days 5    
Growing Degree Days 20 (Base 50)    
Moisture  
Dew Point 65 °F    
Average Humidity 93    
Maximum Humidity 100    
Minimum Humidity 61    
Precipitation  
Precipitation 0.24 in 0.26 in - ()
Sea Level Pressure  
Sea Level Pressure 30.04 in    
Wind  
Wind Speed 3 mph ()    
Max Wind Speed 10 mph    
Max Gust Speed -    
Visibility 3.5 miles    
Events Fog , Rain    
Averages and records for this station are not official NWS values.
T = Trace of Precipitation, MM = Missing Value Source: Averaged Metar Reports

Daily Weather History Graph

Daily Weather History Graph

Search for Another Location

Airport or City:

Trip Planner

Search our weather history database for the weather conditions in past years. The results will help you decide how hot, cold, wet, or windy it might be!

Date:

Astronomy

Oct. 20, 2011 Rise Set
Actual Time 5:25 AM CST 5:17 PM CST
Civil Twilight 5:04 AM CST 5:38 PM CST
Nautical Twilight 4:39 AM CST 6:03 PM CST
Astronomical Twilight 4:14 AM CST 6:28 PM CST
Moon No Moon Rise 12:15 PM CST (10/20)
Length of Visible Light 12h 34m
Length of Day
11h 51m
Last Quarter, 43% of the Moon is Illuminated
Oct 20
Last Quarter
Oct 26
New
Nov 2
First Quarter
Nov 10
Full
Nov 18
Last Quarter

Hourly Weather History & Observations

Time (CST) Temp. Dew Point Humidity Pressure Visibility Wind Dir Wind Speed Gust Speed Precip Events Conditions
12:00 AM 65 °F 63 °F 91% 29.96 in 2 mi West 3.5 mph - - Fog Light Fog
12:00 AM 64.4 °F 64.4 °F 100% 30.10 in 1.9 mi West 3.5 mph - N/A   Overcast
1:00 AM 64.4 °F 64.4 °F 100% 30.07 in 1.9 mi Calm Calm - N/A   Overcast
2:00 AM 64.4 °F 64.4 °F 100% 30.05 in 1.2 mi Calm Calm - N/A   Overcast
3:00 AM 65 °F 64 °F 96% 29.93 in 0 mi Calm Calm - -   Overcast
3:00 AM 64.4 °F 64.4 °F 100% 30.04 in 0.3 mi Calm Calm - N/A Fog Fog
3:10 AM 64.4 °F 64.4 °F 100% 30.04 in 0.3 mi Calm Calm - N/A Fog Fog
3:32 AM 64.4 °F 64.4 °F 100% 30.04 in 3.1 mi Calm Calm - N/A   Overcast
4:00 AM 64.4 °F 64.4 °F 100% 30.04 in 5.0 mi Calm Calm - N/A   Mostly Cloudy
5:00 AM 64.4 °F 64.4 °F 100% 30.05 in 5.0 mi East 2.3 mph - N/A   Mostly Cloudy
6:00 AM 65 °F 64 °F 93% 29.94 in 12 mi SSW 3.5 mph - -   Overcast
6:00 AM 64.4 °F 64.4 °F 100% 30.05 in 6.2 mi NNE 3.5 mph - N/A   Mostly Cloudy
7:00 AM 68.0 °F 62.6 °F 83% 30.08 in - NE 2.3 mph - N/A   Clear
8:00 AM 69.8 °F 64.4 °F 83% 30.13 in - SE 2.3 mph - N/A   Clear
9:00 AM 76 °F 65 °F 61% 30.01 in 9 mi SSW 2.3 mph - -   Haze
9:00 AM 75.2 °F 64.4 °F 69% 30.14 in - SSW 2.3 mph - N/A   Clear
10:00 AM 71.6 °F 66.2 °F 83% 30.12 in 6.2 mi West 6.9 mph - N/A   Mostly Cloudy
11:00 AM 75.2 °F 64.4 °F 69% 30.08 in 6.2 mi WSW 10.4 mph - N/A   Mostly Cloudy
12:00 PM 72 °F 66 °F 75% 29.95 in 9 mi WSW 8.1 mph - - Rain Light Drizzle
12:00 PM 71.6 °F 66.2 °F 83% 30.05 in 6.2 mi WSW 8.1 mph - N/A Rain Light Rain
1:00 PM 69.8 °F 66.2 °F 88% 30.05 in 5.0 mi West 6.9 mph - N/A Fog , Rain Light Rain
2:00 PM 68.0 °F 66.2 °F 94% 30.01 in 5.0 mi WSW 10.4 mph - N/A Fog , Rain Light Rain
3:00 PM 66.2 °F 66.2 °F 100% 30.02 in 0.9 mi WSW 4.6 mph - N/A Rain Light Rain
4:00 PM 66.2 °F 64.4 °F 94% 30.02 in 0.7 mi WSW 4.6 mph - N/A Rain Light Rain
4:08 PM 64.4 °F 64.4 °F 100% 30.02 in 0.3 mi WSW 5.8 mph - N/A Rain Light Rain
5:00 PM 64.4 °F 64.4 °F 100% 30.03 in 0.3 mi WSW 3.5 mph - N/A Fog , Rain Light Rain
5:28 PM 64.4 °F 64.4 °F 100% 30.04 in 0.7 mi WSW 4.6 mph - N/A Rain Light Rain
6:00 PM 64.4 °F 64.4 °F 100% 30.05 in 0.6 mi WSW 3.5 mph - N/A Rain Light Rain
7:00 PM 64.4 °F 64.4 °F 100% 30.06 in 0.9 mi SW 2.3 mph - N/A Rain Light Rain
8:00 PM 64.4 °F 64.4 °F 100% 30.07 in 1.2 mi NW 3.5 mph - N/A Rain Light Rain
9:00 PM 64.4 °F 64.4 °F 100% 30.08 in 2.5 mi North 2.3 mph - N/A Rain Light Rain
10:00 PM 64.4 °F 64.4 °F 100% 30.07 in 6.2 mi East 3.5 mph - N/A Rain Light Rain
11:00 PM 64.4 °F 64.4 °F 100% 30.06 in 6.2 mi Calm Calm - N/A   Light Drizzle